This demonstration page uses our WeatherBlox Daily Observations layout. Learn more.

Left ArrowRight Arrow

39.01783, -85.05884

Hourly Observations for November 1, 2018

Temp ( °F °C ) Dew Point ( °F °C ) Humidity (%) Winds ( mph kmh ) Pressure ( in mb ) Visibility ( mi km ) Precip ( " mm )
12:52 am 00:52 Cloudy with Heavy Rain 57 13.9 57 13.9 100 100 Calm 29.83 1010 2 2 0.02 0.51
1:36 am 01:36 Cloudy with Light Rain 57 13.9 57 13.9 100 100 ESE 3 6 29.83 1010 3 5 0.09 2.29
1:52 am 01:52 Cloudy with Heavy Rain 57 13.9 57 13.9 100 100 Calm 29.80 1009 3 4 0.15 3.81
2:28 am 02:28 Cloudy with Light Rain 59 15 59 15 100 100 Calm 29.80 1009 3 5 0.07 1.78
2:52 am 02:52 Cloudy with Rain 58 14.4 58 14.4 100 100 NNW 5 7 29.80 1009 3 5 0.14 3.56
3:30 am 03:30 Cloudy with Heavy Rain 55 12.8 55 12.8 100 100 N 9 15 29.80 1009 3 4 0.11 2.79
3:52 am 03:52 Cloudy with Rain 54 12.2 54 12.2 100 100 N 15 24 29.78 1008 3 5 0.21 5.33
4:12 am 04:12 Cloudy with Rain 54 12.2 54 12.2 100 100 N 17 28 29.77 1008 3 5 0.03 0.76
4:52 am 04:52 Cloudy with Heavy Rain 53 11.7 52 11.1 96 96 N 10 17 29.76 1008 3 5 0.25 6.35
5:35 am 05:35 Cloudy with Light Rain 52 11.1 52 11.1 100 100 N 17 28 29.77 1008 3 5 0.14 3.56
5:52 am 05:52 Cloudy with Light Rain 52 11.1 52 11.1 100 100 N 9 15 29.77 1008 9 14 0.19 4.83
6:25 am 06:25 Cloudy with Rain 52 11.1 52 11.1 100 100 NE 10 17 29.77 1008 4 6 0.04 1.02
6:44 am 06:44 Cloudy with Light Rain 52 11.1 52 11.1 100 100 NE 12 19 29.74 1007 6 10 0.06 1.52
6:52 am 06:52 Cloudy with Light Rain 52 11.1 52 11.1 100 100 NNE 12 19 29.72 1006 6 10 0.06 1.52
7:01 am 07:01 Cloudy with Rain 52 11.1 52 11.1 100 100 NE 8 13 29.74 1007 3 5 0.03 0.76
7:13 am 07:13 Cloudy with Light Rain 52 11.1 52 11.1 100 100 NNE 15 24 29.74 1007 5 8 0.05 1.27
7:52 am 07:52 Cloudy with Light Rain 52 11.1 51 10.6 97 97 ENE 10 17 29.70 1006 5 8 0.08 2.03
8:01 am 08:01 Cloudy with Light Rain 51 10.6 51 10.6 100 100 NNE 10 17 29.71 1006 2 3 0.01 0.25
8:52 am 08:52 Cloudy with Light Rain 51 10.6 51 10.6 100 100 NNE 10 17 29.69 1006 3 5 0.07 1.78
9:52 am 09:52 Cloudy with Light Rain 51 10.6 50 10 96 96 ENE 12 19 29.68 1005 1 2 0.06 1.52
10:18 am 10:18 Cloudy with Rain 51 10.6 50 10 96 96 NE 13 20 29.68 1005 1 1 0.03 0.76
10:29 am 10:29 Cloudy with Rain 51 10.6 51 10.6 100 100 ENE 9 15 29.68 1005 1 2 0.06 1.52
10:39 am 10:39 Cloudy with Rain 51 10.6 51 10.6 100 100 ENE 8 13 29.65 1004 1 1 0.07 1.78
10:52 am 10:52 Cloudy with Rain 52 11.1 51 10.6 97 97 ENE 9 15 29.64 1004 1 2 0.10 2.54
11:08 am 11:08 Cloudy with Rain 52 11.1 52 11.1 100 100 E 6 9 29.62 1003 2 3 0.05 1.27
11:25 am 11:25 Cloudy with Heavy Rain 53 11.7 53 11.7 100 100 E 9 15 29.62 1003 2 3 0.12 3.05
11:52 am 11:52 Cloudy with Rain 57 13.9 56 13.3 96 96 SE 10 17 29.58 1002 3 5 0.20 5.08
12:52 pm 12:52 Cloudy with Light Rain 61 16.1 59 15 93 93 SSE 17 28 29.54 1000 5 8 0.06 1.52
1:52 pm 13:52 Cloudy 63 17.2 59 15 87 87 SSW 16 26 29.52 1000 10 16 0.02 0.51
2:25 pm 14:25 Cloudy with Light Rain 63 17.2 60 15.6 90 90 S 15 24 29.50 999 3 4 0.00 0.03
2:48 pm 14:48 Cloudy with Mist and Fog 63 17 61 16 94 94 S 16 26 29.50 999 4 6 0.01 0.25
2:52 pm 14:52 Cloudy with Mist and Fog 63 17.2 61 16.1 93 93 SSW 13 20 29.48 998 4 6 0.01 0.25
3:34 pm 15:34 Cloudy with Light Rain 64 17.8 60 15.6 87 87 SSW 17 28 29.50 999 3 4 0.00 0.03
3:52 pm 15:52 Cloudy with Rain 63 17.2 61 16.1 93 93 S 13 20 29.47 998 3 4 0.03 0.76
4:35 pm 16:35 Cloudy with Light Rain 53 11.7 53 11.7 100 100 NNW 12 19 29.53 1000 3 4 0.04 1.02
4:52 pm 16:52 Cloudy with Mist and Fog 51 10.6 51 10.6 100 100 NW 14 22 29.49 999 3 4 0.04 1.02
5:07 pm 17:07 Cloudy with Light Rain 50 10 50 10 100 100 NNW 14 22 29.53 1000 3 4 0.00 0.03
5:52 pm 17:52 Cloudy with Light Rain 49 9.4 49 9.4 100 100 NNW 7 11 29.49 999 3 4 0.02 0.51
6:22 pm 18:22 Cloudy with Light Rain 49 9.4 49 9.4 100 100 NW 9 15 29.53 1000 2 3 0.00 0.03
6:52 pm 18:52 Cloudy with Light Rain 49 9.4 49 9.4 100 100 N 8 13 29.47 998 3 4 0.02 0.51
7:10 pm 19:10 Cloudy with Rain 49 9.4 48 8.9 97 97 NW 7 11 29.53 1000 3 4 0.04 1.02
7:35 pm 19:35 Cloudy with Light Rain 49 9.4 49 9.4 100 100 NNW 6 9 29.50 999 3 4 0.05 1.27
7:45 pm 19:45 Cloudy with Heavy Rain 48 8.9 48 8.9 100 100 NW 8 13 29.53 1000 2 3 0.10 2.54
7:52 pm 19:52 Cloudy with Heavy Rain 48 8.9 48 8.9 100 100 NW 6 9 29.50 999 3 4 0.24 6.10
8:09 pm 20:09 Cloudy with Light Rain 49 9.4 48 8.9 97 97 WNW 8 13 29.53 1000 6 10 0.04 1.02
8:52 pm 20:52 Cloudy 48 8.9 48 8.9 100 100 W 6 9 29.54 1000 10 16 0.06 1.52
9:04 pm 21:04 Cloudy with Drizzle 48 8.9 48 8.9 100 100 WSW 3 6 29.56 1001 3 4 0.00 0.03
9:22 pm 21:22 Cloudy with Drizzle 48 8.9 48 8.9 100 100 W 8 13 29.56 1001 1 2 0.00 0.03
9:52 pm 21:52 Cloudy with Drizzle 48 8.9 48 8.9 100 100 W 6 9 29.55 1001 2 2 0.00 0.03
10:17 pm 22:17 Cloudy with Drizzle 48 8.9 48 8.9 100 100 WSW 6 9 29.56 1001 1 1 0.00 0.03
10:40 pm 22:40 Cloudy with Mist and Fog 48 8.9 48 8.9 100 100 WSW 8 13 29.59 1002 2 2 0.00 0.03
10:52 pm 22:52 Cloudy with Mist and Fog 49 9.4 48 8.9 97 97 WSW 10 17 29.59 1002 3 5 0.00 0.03
11:25 pm 23:25 Cloudy with Mist and Fog 50 10 48 8.9 93 93 WSW 12 19 29.59 1002 3 5 0.00 0.00
11:52 pm 23:52 Cloudy 50 10 47 8.3 89 89 WSW 14 22 29.59 1002 10 16 0.00 0.00

Powered by AerisWeather